Regional Weather Roundup
Issued by NWS Newport/Morehead, NC

Current Version | Previous Version | Text Only | Print | Product List | Glossary On
Versions: 1 2 3 4 5 6 7 8 9 10 11 12 13 14 15 16 17 18 19 20 21 22 23 24 25 26 27 28 29 30 31 32 33 34 35 36 37 38 39 40 41 42 43 44 45 46 47 48 49 50
000
ASUS42 KMHX 050713
RWRMHX
WEATHER ROUNDUP FOR EASTERN NORTH CAROLINA
NATIONAL WEATHER SERVICE NEWPORT/MOREHEAD CITY NC
300 AM EDT THU MAY 05 2016

NOTE: "FAIR" INDICATES FEW OR NO CLOUDS BELOW 12,000 FEET
WITH NO SIGNIFICANT WEATHER AND/OR OBSTRUCTIONS TO VISIBILITY

NCZ015>017-031-032-045>047-102-103-050800-
NORTH COAST

CITY           SKY/WX    TMP DP  RH WIND       PRES   REMARKS
EDENTON        CLOUDY    57  57 100 N5        29.60F
ELIZABETH CITY CLOUDY    55  53  93 NE10      29.60F
KITTY HAWK     FOG       54  54  99 N8        29.56F VSB 3/4
MANTEO         CLOUDY    55  55 100 NE10      29.58F

$$

NCZ045>047-081-094-103-104-050800-
CENTRAL COAST

CITY           SKY/WX    TMP DP  RH WIND       PRES   REMARKS
FRISCO         CLOUDY    58  56  93 NE9       29.55F
SWANQUARTER    NOT AVBL

$$

NCZ095-097-098-100-101-050800-
SOUTHERN COAST

CITY           SKY/WX    TMP DP  RH WIND       PRES   REMARKS
BEAUFORT       CLOUDY    63  62  97 NE8       29.54F
CEDAR ISLAND   NOT AVBL
JACKSONVILLE   CLOUDY    65  62  90 NE8       29.54F
PINEY ISLAND   CLOUDY   N/A N/A N/A NE10      29.55
WILMINGTON     CLOUDY    63  58  83 CALM      29.55F


$$

NCZ011>013-027>030-043-044-078>080-089-090>093-098-050800-
COASTAL PLAIN

CITY           SKY/WX    TMP DP  RH WIND       PRES   REMARKS
AHOSKIE        CLOUDY    55  53  95 NE3       29.62S
CLINTON        PTCLDY    60  59  97 CALM      29.56F
ELIZABETHTOWN  MOCLDY    61  57  88 CALM      29.56F
GOLDSBORO      CLOUDY    61  61 100 NE5       29.54F
GREENVILLE     CLOUDY    61  59  94 NE7       29.62F
HAVELOCK       CLOUDY    64  61  90 NE8       29.57F
KENANSVILLE    CLOUDY    58  56  92 CALM      29.57F
KINSTON        CLOUDY    64  62  96 NE5       29.57F
NEW BERN       CLOUDY    62  60  93 NE8       29.58F
RICHLANDS      CLOUDY    61  60  97 CALM      29.56F
ROCKY MOUNT    CLOUDY    61  60  97 E3        29.57F
WASHINGTON     CLOUDY    59  57  94 NE9       29.58F FOG
WHITEVILLE     NOT AVBL

$$

AMZ130-135-150-152-154-156-158-170-250-252-270-ANZ085-086-088-633-658-670-050800-
MARINE OBSERVATIONS

STATION/POSITION TIME  TEMP    WIND        PRES    WAVE   SWELL
                       AIR SEA DIR/SP/G            HT/PER HT/PER
                 (UTC) (F)     (DEG/KT/KT) (MB)    (FT/S) (FT/S)
CHESAPEAKE LIGHT 0600   51      30/ 15/ 16 1003.8
64 E VA BEACH    0650   52 54   10/ 16/ 17 1001.6    4/ 6   2/ 7
DUCK             0600   53 60   20/ 12/ 15 1002.3
2 E DUCK         0611      60                N/A     3/ 6
OREGON INLET     0600   56 64   20/ 10/ 15 1002.2
13E OREGON INLT  0600      58                N/A     4/ 7   3/ 7
HATTERAS CG      0600   60 70   40/  9/ 14 1001.6
DIAMOND BUOY     0650   62 70   20/ 16/ 17 1000.1    4/ 5   2/ 8
CAPE LOOKOUT     0700   63      40/ 15/ 17 1000.0
BEAUFORT LAB     0600   64 68   50/  6/ 12 1000.5
30 SE NEW RVR IN 0625      71                N/A     4/ 6
27 SE WRIGHTSVLE 0608   71 72   20/  6/ 10 1000.5
5 SE WRIGHTSVLE  0608   67 69   10/  8/ 12 1001.7
225 S CAPE HAT   0650   72 73  160/ 17/ 19 1000.0    5/ 7   2/ 8
41 SE CHARLESTON 0650   71 74  330/ 16/ 19 1001.4    4/ 4   2/ 8

$$




USA.gov is the U.S. government's official web portal to all federal, state and local government web resources and services.